Weather History for Osceola Municipal, IA

Change the Weather History Date:

Saturday, March 1, 2014

  Actual Average (KLWD) Record (KLWD)
Temperature  
Mean Temperature 10 °F 33 °F  
Max Temperature 20 °F 43 °F 76 °F (1992)
Min Temperature 0 °F 24 °F 0 °F (1980)
Degree Days  
Heating Degree Days 55 32  
Month to date heating degree days 32  
Since 1 July heating degree days 4749  
Cooling Degree Days 0 0  
Month to date cooling degree days 0  
Year to date cooling degree days 0  
Moisture  
Dew Point 2 °F    
Average Humidity 77    
Maximum Humidity 83    
Minimum Humidity 73    
Precipitation  
Precipitation 0.00 in 0.06 in 1.57 in (1991)
Month to date precipitation 0.06  
Sea Level Pressure  
Sea Level Pressure 30.29 in    
Wind  
Wind Speed 14 mph (NNW)    
Max Wind Speed 21 mph    
Max Gust Speed 24 mph    
Visibility 8 miles    
Events Snow    
T = Trace of Precipitation, MM = Missing Value Source: NWS Daily Summary

Daily Weather History Graph

Daily Weather History Graph

Search for Another Location

Airport:

Trip Planner

Search our weather history database for the weather conditions in past years. The results will help you decide how hot, cold, wet, or windy it might be!

Date:

Astronomy

Mar. 01, 2014 Rise Set
Actual Time 6:48 AM CST 6:05 PM CST
Civil Twilight 6:21 AM CST 6:33 PM CST
Nautical Twilight 5:49 AM CST 7:05 PM CST
Astronomical Twilight 5:17 AM CST 7:37 PM CST
Moon 6:42 AM CST (3/1) 6:54 PM CST (3/1)
Length of Visible Light 12h 12m
Length of Day
11h 16m
New Moon, 0% of the Moon is Illuminated
Mar 1
New Moon
Mar 8
First Quarter
Mar 16
Full
Mar 23
Last Quarter
Mar 30
New

Hourly Weather History & Observations

Time (CST) Temp. Windchill Dew Point Humidity Pressure Visibility Wind Dir Wind Speed Gust Speed Precip Events Conditions
12:15 AM 20.5 °F 8.6 °F 16.2 °F 83% 30.08 in 10.0 mi North 11.5 mph - N/A   Overcast
12:35 AM 20.5 °F 7.4 °F 15.8 °F 82% 30.09 in 10.0 mi North 13.8 mph - N/A   Overcast
12:55 AM 19.9 °F 6.7 °F 14.5 °F 80% 30.09 in 10.0 mi North 13.8 mph - N/A   Overcast
1:15 AM 19.9 °F 6.7 °F 14.7 °F 80% 30.10 in 10.0 mi North 13.8 mph 17.3 mph N/A   Overcast
1:35 AM 19.8 °F 7.7 °F 14.5 °F 80% 30.11 in 10.0 mi NNW 11.5 mph - N/A   Overcast
1:55 AM 19.4 °F 4.5 °F 14.0 °F 80% 30.11 in 10.0 mi NNW 17.3 mph 21.9 mph N/A   Overcast
2:15 AM 19.4 °F 5.5 °F 13.6 °F 78% 30.13 in 10.0 mi NNW 15.0 mph - N/A   Overcast
2:35 AM 19.4 °F 6.6 °F 14.0 °F 80% 30.13 in 10.0 mi NNW 12.7 mph - N/A   Overcast
2:55 AM 18.7 °F 3.6 °F 13.6 °F 81% 30.12 in 10.0 mi NNW 17.3 mph - N/A   Overcast
3:15 AM 16.7 °F 1.0 °F 10.0 °F 75% 30.13 in 10.0 mi NNW 17.3 mph 21.9 mph N/A   Overcast
3:35 AM 16.3 °F 0.1 °F 10.0 °F 76% 30.15 in 10.0 mi NNW 18.4 mph - N/A   Overcast
3:55 AM 14.9 °F -1.8 °F 8.8 °F 77% 30.15 in 10.0 mi NNW 18.4 mph - N/A   Overcast
4:15 AM 13.1 °F -2.0 °F 7.3 °F 78% 30.16 in 10.0 mi NNW 13.8 mph - N/A   Overcast
4:35 AM 13.1 °F -2.6 °F 7.7 °F 79% 30.16 in 10.0 mi NNW 15.0 mph - N/A   Overcast
4:55 AM 12.7 °F -3.6 °F 5.9 °F 74% 30.17 in 10.0 mi NNW 16.1 mph - N/A   Overcast
5:15 AM 12.2 °F -0.2 °F 5.4 °F 74% 30.19 in 10.0 mi North 9.2 mph - N/A   Overcast
5:35 AM 12.0 °F -3.4 °F 5.2 °F 74% 30.21 in 10.0 mi NNW 13.8 mph - N/A   Overcast
5:55 AM 12.2 °F -3.7 °F 5.0 °F 73% 30.22 in 10.0 mi North 15.0 mph 19.6 mph N/A   Overcast
6:15 AM 12.2 °F -3.7 °F 5.7 °F 75% 30.23 in 10.0 mi NNW 15.0 mph - N/A   Overcast
6:35 AM 11.3 °F -4.3 °F 4.5 °F 74% 30.24 in 10.0 mi North 13.8 mph - N/A   Overcast
6:55 AM 11.3 °F -3.6 °F 4.8 °F 75% 30.25 in 10.0 mi North 12.7 mph 16.1 mph N/A   Overcast
7:15 AM 10.4 °F -6.0 °F 3.2 °F 73% 30.25 in 10.0 mi North 15.0 mph 18.4 mph N/A   Overcast
7:35 AM 9.7 °F -6.3 °F 3.0 °F 74% 30.24 in 10.0 mi North 13.8 mph - N/A   Overcast
7:55 AM 9.7 °F -7.5 °F 3.2 °F 75% 30.25 in 10.0 mi NNW 16.1 mph - N/A   Overcast
8:15 AM 9.5 °F -7.8 °F 3.4 °F 76% 30.26 in 10.0 mi NNW 16.1 mph 20.7 mph N/A   Overcast
8:35 AM 9.5 °F -7.8 °F 3.2 °F 76% 30.26 in 10.0 mi North 16.1 mph - N/A   Overcast
8:55 AM 9.3 °F -6.8 °F 3.2 °F 76% 30.27 in 10.0 mi North 13.8 mph - N/A   Overcast
9:15 AM 9.0 °F -7.3 °F 2.8 °F 76% 30.28 in 10.0 mi NNW 13.8 mph - N/A   Overcast
9:35 AM 8.6 °F -8.9 °F 2.3 °F 76% 30.32 in 10.0 mi NNW 16.1 mph - N/A   Overcast
9:55 AM 9.1 °F -7.0 °F 2.8 °F 76% 30.33 in 10.0 mi NNW 13.8 mph - N/A   Overcast
10:15 AM 8.6 °F -6.3 °F 2.5 °F 76% 30.33 in 10.0 mi NNW 11.5 mph - N/A   Overcast
10:35 AM 8.4 °F -9.2 °F 2.3 °F 76% 30.33 in 10.0 mi North 16.1 mph - N/A   Overcast
10:55 AM 8.4 °F -9.2 °F 2.1 °F 76% 30.34 in 10.0 mi NNW 16.1 mph - N/A   Overcast
11:15 AM 8.4 °F -7.9 °F 1.6 °F 74% 30.34 in 10.0 mi NNW 13.8 mph - N/A   Overcast
11:35 AM 8.2 °F -8.2 °F 1.8 °F 75% 30.33 in 10.0 mi North 13.8 mph - N/A   Overcast
11:55 AM 8.2 °F -9.4 °F 1.6 °F 74% 30.34 in 10.0 mi NNW 16.1 mph - N/A   Overcast
12:15 PM 7.7 °F -10.1 °F 1.2 °F 75% 30.33 in 10.0 mi North 16.1 mph 21.9 mph N/A   Overcast
12:35 PM 8.1 °F -9.6 °F 1.8 °F 75% 30.33 in 10.0 mi NNW 16.1 mph - N/A   Overcast
12:55 PM 8.2 °F -8.8 °F 1.9 °F 76% 30.31 in 10.0 mi North 15.0 mph - N/A   Overcast
1:15 PM 7.9 °F -8.6 °F 1.2 °F 74% 30.32 in 10.0 mi North 13.8 mph 18.4 mph N/A   Overcast
1:35 PM 7.7 °F -8.9 °F 0.7 °F 73% 30.33 in 10.0 mi North 13.8 mph - N/A   Overcast
1:50 PM 8.1 °F -7.7 °F 1.4 °F 74% 30.31 in 10.0 mi North 12.7 mph - N/A   Overcast
2:15 PM 7.0 °F -10.4 °F 1.0 °F 77% 30.31 in 5.0 mi North 15.0 mph 23.0 mph N/A   Haze
2:35 PM 7.2 °F -9.6 °F 1.4 °F 77% 30.33 in 7.0 mi North 13.8 mph 18.4 mph N/A   Overcast
2:55 PM 6.6 °F -10.9 °F 0.9 °F 77% 30.33 in 7.0 mi North 15.0 mph 18.4 mph N/A   Overcast
3:15 PM 6.6 °F -9.5 °F 0.3 °F 75% 30.33 in 7.0 mi North 12.7 mph - N/A   Overcast
3:35 PM 6.3 °F -11.3 °F -0.0 °F 75% 30.33 in 7.0 mi North 15.0 mph 20.7 mph N/A   Overcast
3:55 PM 5.9 °F -11.8 °F 0.3 °F 78% 30.34 in 7.0 mi North 15.0 mph - N/A   Overcast
4:15 PM 5.5 °F -12.3 °F -0.4 °F 77% 30.34 in 5.0 mi NNW 15.0 mph - N/A   Haze
4:35 PM 5.5 °F -10.9 °F -0.6 °F 76% 30.34 in 10.0 mi North 12.7 mph 18.4 mph N/A   Overcast
4:55 PM 5.4 °F -12.5 °F -1.1 °F 75% 30.34 in 10.0 mi North 15.0 mph 20.7 mph N/A   Overcast
5:15 PM 5.0 °F -13.0 °F -0.9 °F 76% 30.34 in 10.0 mi North 15.0 mph - N/A   Overcast
5:35 PM 4.6 °F -12.8 °F -1.1 °F 77% 30.34 in 7.0 mi North 13.8 mph 20.7 mph N/A   Overcast
5:55 PM 4.1 °F -15.3 °F -2.0 °F 76% 30.35 in 10.0 mi North 17.3 mph - N/A   Overcast
6:15 PM 3.6 °F -14.1 °F -1.7 °F 79% 30.36 in 1.8 mi North 13.8 mph 21.9 mph N/A Snow Light Snow
6:30 PM 3.2 °F -15.9 °F -1.7 °F 80% 30.38 in 2.5 mi NNW 16.1 mph - N/A Snow Light Snow
6:55 PM 2.3 °F -17.7 °F -2.7 °F 79% 30.37 in 3.0 mi North 17.3 mph 21.9 mph N/A Snow Light Snow
7:15 PM 1.4 °F -18.2 °F -3.6 °F 79% 30.38 in 3.0 mi North 16.1 mph - N/A Snow Light Snow
7:35 PM 0.9 °F -16.8 °F -4.0 °F 80% 30.40 in 2.0 mi North 12.7 mph - N/A Snow Light Snow
7:55 PM 0.5 °F -16.5 °F -4.0 °F 81% 30.40 in 1.5 mi North 11.5 mph 20.7 mph N/A Snow Light Snow
8:15 PM 0.9 °F -18.9 °F -4.2 °F 79% 30.39 in 5.0 mi North 16.1 mph - N/A Snow Light Snow
8:35 PM 0.5 °F -20.6 °F -4.7 °F 79% 30.38 in 7.0 mi North 18.4 mph 23.0 mph N/A Snow Light Snow
8:55 PM 0.1 °F -20.5 °F -4.9 °F 79% 30.40 in 2.0 mi North 17.3 mph - N/A Snow Light Snow
9:15 PM -0.0 °F -19.4 °F -4.2 °F 83% 30.42 in 1.5 mi North 15.0 mph - N/A Snow Light Snow
9:35 PM -0.2 °F -18.2 °F -4.9 °F 81% 30.43 in 3.0 mi North 12.7 mph 16.1 mph N/A Snow Light Snow
9:55 PM -0.4 °F -17.6 °F -5.1 °F 81% 30.43 in 4.0 mi North 11.5 mph - N/A Snow Light Snow
10:15 PM -0.4 °F -18.4 °F -5.3 °F 80% 30.42 in 3.0 mi NNW 12.7 mph - N/A Snow Light Snow
10:35 PM -0.4 °F -19.2 °F -5.8 °F 78% 30.43 in 4.0 mi North 13.8 mph 19.6 mph N/A Snow Light Snow
10:55 PM -0.2 °F -19.6 °F -5.6 °F 78% 30.42 in 10.0 mi North 15.0 mph 23.0 mph N/A   Overcast
11:15 PM -0.4 °F -22.8 °F -6.0 °F 77% 30.42 in 7.0 mi North 20.7 mph 24.2 mph N/A   Overcast
11:35 PM -0.4 °F -16.7 °F -6.2 °F 77% 30.43 in 10.0 mi North 10.4 mph - N/A   Overcast
11:55 PM -0.8 °F -21.6 °F -6.9 °F 75% 30.42 in 10.0 mi North 17.3 mph 21.9 mph N/A   Overcast